Flag for Germany Weather past 2 weeks in Uelzen, Lower Saxony, Germany

Now
45 °F

Broken clouds.


Feels Like: 39 °F
Forecast: 36 / 46 °F
Wind: 10 mph from Northwest

Location: Fassberg

Current Time: Mar 5, 2015 at 5:44:56 PM

Latest Report: Mar 5, 2015 at 5:00 PM


Visibility: N/A

Pressure: 30.54 "Hg

Humidity: 61%

Dew point: 32 °F

Location of UelzenLocation

Historic Weather in Uelzen — Graph

°F

Uelzen temperature yesterday

Maximum temperature yesterday: 41 °F (at 12:20 PM)
Minimum temperature yesterday: 32 °F (at 6:20 AM)
Average temperature yesterday: 37 °F

Past Weeks' High & Low Weather Summary

 TemperatureHumidityPressure
High48 °F (Feb 26, 1:20 PM)100% (Feb 25, 12:20 AM)30.60 "Hg (Feb 25, 12:20 AM)
Low30 °F (Feb 19, 2:20 AM)49% (Feb 18, 5:00 PM)29.27 "Hg (Feb 21, 10:20 AM)
Average38 °F81%29.85 "Hg
* Reported Feb 18 4:20 PM — Mar 5 4:20 PM, Uelzen, Weather by CustomWeather, © 2015

Note: Actual official high and low records may vary slightly from our data, if they occured in-between our weather recording intervals... More about our weather records

Advertising

Uelzen weather history for previous 24 hours

 ConditionsComfort  
Time TempWeatherWind HumidityBarometerVisibility
4:20 PM
Thu, Mar 5
45 °FBroken clouds.9 mph66%30.54 "HgN/A
3:20 PM45 °FPartly sunny.14 mph66%30.54 "HgN/A
2:20 PM43 °FScattered showers. Partly sunny.14 mph71%30.54 "HgN/A
1:20 PM43 °FPartly sunny.13 mph71%30.54 "HgN/A
12:20 PM43 °FPartly sunny.15 mph71%30.54 "HgN/A
11:20 AM41 °FBroken clouds.13 mph81%30.54 "HgN/A
10:47 AM41 °FBroken clouds.12 mph87%30.54 "HgN/A
10:20 AM39 °FBroken clouds.10 mph93%30.51 "HgN/A
9:46 AM39 °FDrizzle. Fog.12 mph93%30.51 "Hg3 mi
9:20 AM39 °FDrizzle. Fog.12 mph93%30.51 "Hg3 mi
8:20 AM37 °FPartly sunny.8 mph93%30.51 "Hg4 mi
7:20 AM36 °FFog.8 mph100%30.48 "Hg3 mi
6:20 AM34 °FPassing clouds.7 mph93%30.48 "Hg6 mi
5:20 AM34 °FPassing clouds.7 mph93%30.45 "HgN/A
4:20 AM36 °FPassing clouds.9 mph87%30.42 "HgN/A
2:20 AM36 °FPassing clouds.12 mph87%30.39 "HgN/A
1:20 AM37 °FPassing clouds.13 mph87%30.33 "HgN/A
12:20 AM37 °FPassing clouds.13 mph87%30.30 "HgN/A
11:20 PM
Wed, Mar 4
37 °FPartly cloudy.15 mph87%30.24 "HgN/A
10:20 PM37 °FPartly cloudy.15 mph93%30.21 "Hg5 mi
9:20 PM37 °FSprinkles. Partly cloudy.14 mph93%30.18 "Hg5 mi
8:20 PM37 °FPassing clouds.13 mph87%30.15 "HgN/A
8:00 PM37 °FSprinkles. Passing clouds.13 mph93%30.15 "HgN/A
7:20 PM36 °FPassing clouds.10 mph93%30.15 "HgN/A
6:20 PM37 °FSprinkles. Partly cloudy.13 mph87%30.12 "Hg4 mi
6:02 PM39 °FRain showers. Passing clouds.14 mph81%30.12 "Hg1 mi
5:50 PM39 °FRain showers. Partly sunny.14 mph81%30.12 "Hg3 mi
5:20 PM39 °FScattered clouds.12 mph87%30.09 "HgN/A
Weather by CustomWeather, © 2015

See weather overviewHow to use our weather pages